STATID,TT.MM.JJJJ,TX,TXF,TM,TMF,TN,TNF,RR,RRF,RF,RFF,DD,DDF,SD,SDF,FF,FFF,ET,RG,SN,SNF,FM,FMF,RK,RKF,GR
50236,01.01.1961,,,,,,,,,,,,,,,,,,,13,2,,,,,
50236,02.01.1961,,,,,,,,,,,,,,,,,,,15,2,,,,,
50236,03.01.1961,,,,,,,,,,,,,,,,,,,14,2,,,,,
50236,04.01.1961,,,,,,,,,,,,,,,,,,,16,2,,,,,
50236,05.01.1961,,,,,,,,,,,,,,,,,,,15,2,,,,,
50236,06.01.1961,,,,,,,,,,,,,,,,,,,16,2,,,,,
50236,07.01.1961,,,,,,,,,,,,,,,,,,,16,2,,,,,
50236,08.01.1961,,,,,,,,,,,,,,,,,,,18,2,,,,,
50236,09.01.1961,,,,,,,,,,,,,,,,,,,17,2,,,,,
50236,10.01.1961,,,,,,,,,,,,,,,,,,,17,2,,,,,
50236,11.01.1961,,,,,,,,,,,,,,,,,,,16,2,,,,,
50236,12.01.1961,,,,,,,,,,,,,,,,,,,16,2,,,,,
50236,13.01.1961,,,,,,,,,,,,,,,,,,,15,2,,,,,
50236,14.01.1961,,,,,,,,,,,,,,,,,,,15,2,,,,,
50236,15.01.1961,,,,,,,,,,,,,,,,,,,16,2,,,,,
50236,16.01.1961,,,,,,,,,,,,,,,,,,,16,2,,,,,
50236,17.01.1961,,,,,,,,,,,,,,,,,,,15,2,,,,,
50236,18.01.1961,,,,,,,,,,,,,,,,,,,16,2,,,,,
50236,19.01.1961,,,,,,,,,,,,,,,,,,,16,2,,,,,
50236,20.01.1961,,,,,,,,,,,,,,,,,,,15,2,,,,,
50236,21.01.1961,,,,,,,,,,,,,,,,,,,15,2,,,,,
50236,22.01.1961,,,,,,,,,,,,,,,,,,,15,2,,,,,
50236,23.01.1961,,,,,,,,,,,,,,,,,,,16,2,,,,,
50236,24.01.1961,,,,,,,,,,,,,,,,,,,17,2,,,,,
50236,25.01.1961,,,,,,,,,,,,,,,,,,,18,2,,,,,
50236,26.01.1961,,,,,,,,,,,,,,,,,,,18,2,,,,,
50236,27.01.1961,,,,,,,,,,,,,,,,,,,18,2,,,,,
50236,28.01.1961,,,,,,,,,,,,,,,,,,,18,2,,,,,
50236,29.01.1961,,,,,,,,,,,,,,,,,,,17,2,,,,,
50236,30.01.1961,,,,,,,,,,,,,,,,,,,15,2,,,,,
50236,31.01.1961,,,,,,,,,,,,,,,,,,,8,2,,,,,
50236,01.02.1961,,,,,,,,,,,,,,,,,,,4,2,,,,,
50236,02.02.1961,,,,,,,,,,,,,,,,,,,7,2,,,,,
50236,03.02.1961,,,,,,,,,,,,,,,,,,,12,2,,,,,
50236,04.02.1961,,,,,,,,,,,,,,,,,,,14,2,,,,,
50236,05.02.1961,,,,,,,,,,,,,,,,,,,18,2,,,,,
50236,06.02.1961,,,,,,,,,,,,,,,,,,,18,2,,,,,
50236,07.02.1961,,,,,,,,,,,,,,,,,,,16,2,,,,,
50236,08.02.1961,,,,,,,,,,,,,,,,,,,13,2,,,,,
50236,09.02.1961,,,,,,,,,,,,,,,,,,,8,2,,,,,
50236,10.02.1961,,,,,,,,,,,,,,,,,,,2,2,,,,,
50236,11.02.1961,,,,,,,,,,,,,,,,,,,1,2,,,,,
50236,12.02.1961,,,,,,,,,,,,,,,,,,,0,2,,,,,
50236,13.02.1961,,,,,,,,,,,,,,,,,,,0,2,,,,,
50236,14.02.1961,,,,,,,,,,,,,,,,,,,0,2,,,,,
50236,15.02.1961,,,,,,,,,,,,,,,,,,,0,2,,,,,
50236,16.02.1961,,,,,,,,,,,,,,,,,,,0,2,,,,,
50236,17.02.1961,,,,,,,,,,,,,,,,,,,0,2,,,,,
50236,18.02.1961,,,,,,,,,,,,,,,,,,,0,2,,,,,
50236,19.02.1961,,,,,,,,,,,,,,,,,,,0,2,,,,,
50236,20.02.1961,,,,,,,,,,,,,,,,,,,0,2,,,,,
50236,21.02.1961,,,,,,,,,,,,,,,,,,,0,2,,,,,
50236,22.02.1961,,,,,,,,,,,,,,,,,,,0,2,,,,,
50236,23.02.1961,,,,,,,,,,,,,,,,,,,0,2,,,,,
50236,24.02.1961,,,,,,,,,,,,,,,,,,,0,2,,,,,
50236,25.02.1961,,,,,,,,,,,,,,,,,,,0,2,,,,,
50236,26.02.1961,,,,,,,,,,,,,,,,,,,0,2,,,,,
50236,27.02.1961,,,,,,,,,,,,,,,,,,,0,2,,,,,
50236,28.02.1961,,,,,,,,,,,,,,,,,,,0,2,,,,,
50236,01.03.1961,,,,,,,,,,,,,,,,,,,0,2,,,,,
50236,02.03.1961,,,,,,,,,,,,,,,,,,,0,2,,,,,
50236,03.03.1961,,,,,,,,,,,,,,,,,,,0,2,,,,,
50236,04.03.1961,,,,,,,,,,,,,,,,,,,0,2,,,,,
50236,05.03.1961,,,,,,,,,,,,,,,,,,,0,2,,,,,
50236,06.03.1961,,,,,,,,,,,,,,,,,,,0,2,,,,,
50236,07.03.1961,,,,,,,,,,,,,,,,,,,0,2,,,,,
50236,08.03.1961,,,,,,,,,,,,,,,,,,,0,2,,,,,
50236,09.03.1961,,,,,,,,,,,,,,,,,,,0,2,,,,,
50236,10.03.1961,,,,,,,,,,,,,,,,,,,0,2,,,,,
50236,11.03.1961,,,,,,,,,,,,,,,,,,,0,2,,,,,
50236,12.03.1961,,,,,,,,,,,,,,,,,,,0,2,,,,,
50236,13.03.1961,,,,,,,,,,,,,,,,,,,0,2,,,,,
50236,14.03.1961,,,,,,,,,,,,,,,,,,,0,2,,,,,
50236,15.03.1961,,,,,,,,,,,,,,,,,,,0,2,,,,,
50236,16.03.1961,,,,,,,,,,,,,,,,,,,0,2,,,,,
50236,17.03.1961,,,,,,,,,,,,,,,,,,,0,2,,,,,
50236,18.03.1961,,,,,,,,,,,,,,,,,,,0,2,,,,,
50236,19.03.1961,,,,,,,,,,,,,,,,,,,0,2,,,,,
50236,20.03.1961,,,,,,,,,,,,,,,,,,,1,2,,,,,
50236,21.03.1961,,,,,,,,,,,,,,,,,,,6,2,,,,,
50236,22.03.1961,,,,,,,,,,,,,,,,,,,5,2,,,,,
50236,23.03.1961,,,,,,,,,,,,,,,,,,,2,2,,,,,
50236,24.03.1961,,,,,,,,,,,,,,,,,,,0,2,,,,,
50236,25.03.1961,,,,,,,,,,,,,,,,,,,0,2,,,,,
50236,26.03.1961,,,,,,,,,,,,,,,,,,,0,2,,,,,
50236,27.03.1961,,,,,,,,,,,,,,,,,,,0,2,,,,,
50236,28.03.1961,,,,,,,,,,,,,,,,,,,0,2,,,,,
50236,29.03.1961,,,,,,,,,,,,,,,,,,,1,2,,,,,
50236,30.03.1961,,,,,,,,,,,,,,,,,,,1,2,,,,,
50236,31.03.1961,,,,,,,,,,,,,,,,,,,0,2,,,,,
50236,01.04.1961,,,,,,,,,,,,,,,,,,,0,2,,,,,
50236,02.04.1961,,,,,,,,,,,,,,,,,,,0,2,,,,,
50236,03.04.1961,,,,,,,,,,,,,,,,,,,0,2,,,,,
50236,04.04.1961,,,,,,,,,,,,,,,,,,,0,2,,,,,
50236,05.04.1961,,,,,,,,,,,,,,,,,,,0,2,,,,,
50236,06.04.1961,,,,,,,,,,,,,,,,,,,0,2,,,,,
50236,07.04.1961,,,,,,,,,,,,,,,,,,,0,2,,,,,
50236,08.04.1961,,,,,,,,,,,,,,,,,,,0,2,,,,,
50236,09.04.1961,,,,,,,,,,,,,,,,,,,0,2,,,,,
50236,10.04.1961,,,,,,,,,,,,,,,,,,,0,2,,,,,
50236,11.04.1961,,,,,,,,,,,,,,,,,,,0,2,,,,,
50236,12.04.1961,,,,,,,,,,,,,,,,,,,0,2,,,,,
50236,13.04.1961,,,,,,,,,,,,,,,,,,,0,2,,,,,
50236,14.04.1961,,,,,,,,,,,,,,,,,,,0,2,,,,,
50236,15.04.1961,,,,,,,,,,,,,,,,,,,0,2,,,,,
50236,16.04.1961,,,,,,,,,,,,,,,,,,,0,2,,,,,
50236,17.04.1961,,,,,,,,,,,,,,,,,,,0,2,,,,,
50236,18.04.1961,,,,,,,,,,,,,,,,,,,0,2,,,,,
50236,19.04.1961,,,,,,,,,,,,,,,,,,,0,2,,,,,
50236,20.04.1961,,,,,,,,,,,,,,,,,,,0,2,,,,,
50236,21.04.1961,,,,,,,,,,,,,,,,,,,0,2,,,,,
50236,22.04.1961,,,,,,,,,,,,,,,,,,,0,2,,,,,
50236,23.04.1961,,,,,,,,,,,,,,,,,,,0,2,,,,,
50236,24.04.1961,,,,,,,,,,,,,,,,,,,0,2,,,,,
50236,25.04.1961,,,,,,,,,,,,,,,,,,,0,2,,,,,
50236,26.04.1961,,,,,,,,,,,,,,,,,,,0,2,,,,,
50236,27.04.1961,,,,,,,,,,,,,,,,,,,0,2,,,,,
50236,28.04.1961,,,,,,,,,,,,,,,,,,,0,2,,,,,
50236,29.04.1961,,,,,,,,,,,,,,,,,,,0,2,,,,,
50236,30.04.1961,,,,,,,,,,,,,,,,,,,0,2,,,,,
50236,01.05.1961,,,,,,,,,,,,,,,,,,,0,2,,,,,
50236,02.05.1961,,,,,,,,,,,,,,,,,,,0,2,,,,,
50236,03.05.1961,,,,,,,,,,,,,,,,,,,0,2,,,,,
50236,04.05.1961,,,,,,,,,,,,,,,,,,,0,2,,,,,
50236,05.05.1961,,,,,,,,,,,,,,,,,,,0,2,,,,,
50236,06.05.1961,,,,,,,,,,,,,,,,,,,0,2,,,,,
50236,07.05.1961,,,,,,,,,,,,,,,,,,,0,2,,,,,
50236,08.05.1961,,,,,,,,,,,,,,,,,,,0,2,,,,,
50236,09.05.1961,,,,,,,,,,,,,,,,,,,0,2,,,,,
50236,10.05.1961,,,,,,,,,,,,,,,,,,,0,2,,,,,
50236,11.05.1961,,,,,,,,,,,,,,,,,,,0,2,,,,,
50236,12.05.1961,,,,,,,,,,,,,,,,,,,0,2,,,,,
50236,13.05.1961,,,,,,,,,,,,,,,,,,,0,2,,,,,
50236,14.05.1961,,,,,,,,,,,,,,,,,,,0,2,,,,,
50236,15.05.1961,,,,,,,,,,,,,,,,,,,0,2,,,,,
50236,16.05.1961,,,,,,,,,,,,,,,,,,,0,2,,,,,
50236,17.05.1961,,,,,,,,,,,,,,,,,,,0,2,,,,,
50236,18.05.1961,,,,,,,,,,,,,,,,,,,0,2,,,,,
50236,19.05.1961,,,,,,,,,,,,,,,,,,,0,2,,,,,
50236,20.05.1961,,,,,,,,,,,,,,,,,,,0,2,,,,,
50236,21.05.1961,,,,,,,,,,,,,,,,,,,0,2,,,,,
50236,22.05.1961,,,,,,,,,,,,,,,,,,,0,2,,,,,
50236,23.05.1961,,,,,,,,,,,,,,,,,,,0,2,,,,,
50236,24.05.1961,,,,,,,,,,,,,,,,,,,0,2,,,,,
50236,25.05.1961,,,,,,,,,,,,,,,,,,,0,2,,,,,
50236,26.05.1961,,,,,,,,,,,,,,,,,,,0,2,,,,,
50236,27.05.1961,,,,,,,,,,,,,,,,,,,0,2,,,,,
50236,28.05.1961,,,,,,,,,,,,,,,,,,,0,2,,,,,
50236,29.05.1961,,,,,,,,,,,,,,,,,,,0,2,,,,,
50236,30.05.1961,,,,,,,,,,,,,,,,,,,0,2,,,,,
50236,31.05.1961,,,,,,,,,,,,,,,,,,,0,2,,,,,
50236,01.06.1961,,,,,,,,,,,,,,,,,,,0,2,,,,,
50236,02.06.1961,,,,,,,,,,,,,,,,,,,0,2,,,,,
50236,03.06.1961,,,,,,,,,,,,,,,,,,,0,2,,,,,
50236,04.06.1961,,,,,,,,,,,,,,,,,,,0,2,,,,,
50236,05.06.1961,,,,,,,,,,,,,,,,,,,0,2,,,,,
50236,06.06.1961,,,,,,,,,,,,,,,,,,,0,2,,,,,
50236,07.06.1961,,,,,,,,,,,,,,,,,,,0,2,,,,,
50236,08.06.1961,,,,,,,,,,,,,,,,,,,0,2,,,,,
50236,09.06.1961,,,,,,,,,,,,,,,,,,,0,2,,,,,
50236,10.06.1961,,,,,,,,,,,,,,,,,,,0,2,,,,,
50236,11.06.1961,,,,,,,,,,,,,,,,,,,0,2,,,,,
50236,12.06.1961,,,,,,,,,,,,,,,,,,,0,2,,,,,
50236,13.06.1961,,,,,,,,,,,,,,,,,,,0,2,,,,,
50236,14.06.1961,,,,,,,,,,,,,,,,,,,0,2,,,,,
50236,15.06.1961,,,,,,,,,,,,,,,,,,,0,2,,,,,
50236,16.06.1961,,,,,,,,,,,,,,,,,,,0,2,,,,,
50236,17.06.1961,,,,,,,,,,,,,,,,,,,0,2,,,,,
50236,18.06.1961,,,,,,,,,,,,,,,,,,,0,2,,,,,
50236,19.06.1961,,,,,,,,,,,,,,,,,,,0,2,,,,,
50236,20.06.1961,,,,,,,,,,,,,,,,,,,0,2,,,,,
50236,21.06.1961,,,,,,,,,,,,,,,,,,,0,2,,,,,
50236,22.06.1961,,,,,,,,,,,,,,,,,,,0,2,,,,,
50236,23.06.1961,,,,,,,,,,,,,,,,,,,0,2,,,,,
50236,24.06.1961,,,,,,,,,,,,,,,,,,,0,2,,,,,
50236,25.06.1961,,,,,,,,,,,,,,,,,,,0,2,,,,,
50236,26.06.1961,,,,,,,,,,,,,,,,,,,0,2,,,,,
50236,27.06.1961,,,,,,,,,,,,,,,,,,,0,2,,,,,
50236,28.06.1961,,,,,,,,,,,,,,,,,,,0,2,,,,,
50236,29.06.1961,,,,,,,,,,,,,,,,,,,0,2,,,,,
50236,30.06.1961,,,,,,,,,,,,,,,,,,,0,2,,,,,
50236,01.07.1961,,,,,,,,,,,,,,,,,,,0,2,,,,,
50236,02.07.1961,,,,,,,,,,,,,,,,,,,0,2,,,,,
50236,03.07.1961,,,,,,,,,,,,,,,,,,,0,2,,,,,
50236,04.07.1961,,,,,,,,,,,,,,,,,,,0,2,,,,,
50236,05.07.1961,,,,,,,,,,,,,,,,,,,0,2,,,,,
50236,06.07.1961,,,,,,,,,,,,,,,,,,,0,2,,,,,
50236,07.07.1961,,,,,,,,,,,,,,,,,,,0,2,,,,,
50236,08.07.1961,,,,,,,,,,,,,,,,,,,0,2,,,,,
50236,09.07.1961,,,,,,,,,,,,,,,,,,,0,2,,,,,
50236,10.07.1961,,,,,,,,,,,,,,,,,,,0,2,,,,,
50236,11.07.1961,,,,,,,,,,,,,,,,,,,0,2,,,,,
50236,12.07.1961,,,,,,,,,,,,,,,,,,,0,2,,,,,
50236,13.07.1961,,,,,,,,,,,,,,,,,,,0,2,,,,,
50236,14.07.1961,,,,,,,,,,,,,,,,,,,0,2,,,,,
50236,15.07.1961,,,,,,,,,,,,,,,,,,,0,2,,,,,
50236,16.07.1961,,,,,,,,,,,,,,,,,,,0,2,,,,,
50236,17.07.1961,,,,,,,,,,,,,,,,,,,0,2,,,,,
50236,18.07.1961,,,,,,,,,,,,,,,,,,,0,2,,,,,
50236,19.07.1961,,,,,,,,,,,,,,,,,,,0,2,,,,,
50236,20.07.1961,,,,,,,,,,,,,,,,,,,0,2,,,,,
50236,21.07.1961,,,,,,,,,,,,,,,,,,,0,2,,,,,
50236,22.07.1961,,,,,,,,,,,,,,,,,,,0,2,,,,,
50236,23.07.1961,,,,,,,,,,,,,,,,,,,0,2,,,,,
50236,24.07.1961,,,,,,,,,,,,,,,,,,,0,2,,,,,
50236,25.07.1961,,,,,,,,,,,,,,,,,,,0,2,,,,,
50236,26.07.1961,,,,,,,,,,,,,,,,,,,0,2,,,,,
50236,27.07.1961,,,,,,,,,,,,,,,,,,,0,2,,,,,
50236,28.07.1961,,,,,,,,,,,,,,,,,,,0,2,,,,,
50236,29.07.1961,,,,,,,,,,,,,,,,,,,0,2,,,,,
50236,30.07.1961,,,,,,,,,,,,,,,,,,,0,2,,,,,
50236,31.07.1961,,,,,,,,,,,,,,,,,,,0,2,,,,,
50236,01.08.1961,,,,,,,,,,,,,,,,,,,0,2,,,,,
50236,02.08.1961,,,,,,,,,,,,,,,,,,,0,2,,,,,
50236,03.08.1961,,,,,,,,,,,,,,,,,,,0,2,,,,,
50236,04.08.1961,,,,,,,,,,,,,,,,,,,0,2,,,,,
50236,05.08.1961,,,,,,,,,,,,,,,,,,,0,2,,,,,
50236,06.08.1961,,,,,,,,,,,,,,,,,,,0,2,,,,,
50236,07.08.1961,,,,,,,,,,,,,,,,,,,0,2,,,,,
50236,08.08.1961,,,,,,,,,,,,,,,,,,,0,2,,,,,
50236,09.08.1961,,,,,,,,,,,,,,,,,,,0,2,,,,,
50236,10.08.1961,,,,,,,,,,,,,,,,,,,0,2,,,,,
50236,11.08.1961,,,,,,,,,,,,,,,,,,,0,2,,,,,
50236,12.08.1961,,,,,,,,,,,,,,,,,,,0,2,,,,,
50236,13.08.1961,,,,,,,,,,,,,,,,,,,0,2,,,,,
50236,14.08.1961,,,,,,,,,,,,,,,,,,,0,2,,,,,
50236,15.08.1961,,,,,,,,,,,,,,,,,,,0,2,,,,,
50236,16.08.1961,,,,,,,,,,,,,,,,,,,0,2,,,,,
50236,17.08.1961,,,,,,,,,,,,,,,,,,,0,2,,,,,
50236,18.08.1961,,,,,,,,,,,,,,,,,,,0,2,,,,,
50236,19.08.1961,,,,,,,,,,,,,,,,,,,0,2,,,,,
50236,20.08.1961,,,,,,,,,,,,,,,,,,,0,2,,,,,
50236,21.08.1961,,,,,,,,,,,,,,,,,,,0,2,,,,,
50236,22.08.1961,,,,,,,,,,,,,,,,,,,0,2,,,,,
50236,23.08.1961,,,,,,,,,,,,,,,,,,,0,2,,,,,
50236,24.08.1961,,,,,,,,,,,,,,,,,,,0,2,,,,,
50236,25.08.1961,,,,,,,,,,,,,,,,,,,0,2,,,,,
50236,26.08.1961,,,,,,,,,,,,,,,,,,,0,2,,,,,
50236,27.08.1961,,,,,,,,,,,,,,,,,,,0,2,,,,,
50236,28.08.1961,,,,,,,,,,,,,,,,,,,0,2,,,,,
50236,29.08.1961,,,,,,,,,,,,,,,,,,,0,2,,,,,
50236,30.08.1961,,,,,,,,,,,,,,,,,,,0,2,,,,,
50236,31.08.1961,,,,,,,,,,,,,,,,,,,0,2,,,,,
50236,01.09.1961,,,,,,,,,,,,,,,,,,,0,2,,,,,
50236,02.09.1961,,,,,,,,,,,,,,,,,,,0,2,,,,,
50236,03.09.1961,,,,,,,,,,,,,,,,,,,0,2,,,,,
50236,04.09.1961,,,,,,,,,,,,,,,,,,,0,2,,,,,
50236,05.09.1961,,,,,,,,,,,,,,,,,,,0,2,,,,,
50236,06.09.1961,,,,,,,,,,,,,,,,,,,0,2,,,,,
50236,07.09.1961,,,,,,,,,,,,,,,,,,,0,2,,,,,
50236,08.09.1961,,,,,,,,,,,,,,,,,,,0,2,,,,,
50236,09.09.1961,,,,,,,,,,,,,,,,,,,0,2,,,,,
50236,10.09.1961,,,,,,,,,,,,,,,,,,,0,2,,,,,
50236,11.09.1961,,,,,,,,,,,,,,,,,,,0,2,,,,,
50236,12.09.1961,,,,,,,,,,,,,,,,,,,0,2,,,,,
50236,13.09.1961,,,,,,,,,,,,,,,,,,,0,2,,,,,
50236,14.09.1961,,,,,,,,,,,,,,,,,,,0,2,,,,,
50236,15.09.1961,,,,,,,,,,,,,,,,,,,0,2,,,,,
50236,16.09.1961,,,,,,,,,,,,,,,,,,,0,2,,,,,
50236,17.09.1961,,,,,,,,,,,,,,,,,,,0,2,,,,,
50236,18.09.1961,,,,,,,,,,,,,,,,,,,0,2,,,,,
50236,19.09.1961,,,,,,,,,,,,,,,,,,,0,2,,,,,
50236,20.09.1961,,,,,,,,,,,,,,,,,,,0,2,,,,,
50236,21.09.1961,,,,,,,,,,,,,,,,,,,0,2,,,,,
50236,22.09.1961,,,,,,,,,,,,,,,,,,,0,2,,,,,
50236,23.09.1961,,,,,,,,,,,,,,,,,,,0,2,,,,,
50236,24.09.1961,,,,,,,,,,,,,,,,,,,0,2,,,,,
50236,25.09.1961,,,,,,,,,,,,,,,,,,,0,2,,,,,
50236,26.09.1961,,,,,,,,,,,,,,,,,,,0,2,,,,,
50236,27.09.1961,,,,,,,,,,,,,,,,,,,0,2,,,,,
50236,28.09.1961,,,,,,,,,,,,,,,,,,,0,2,,,,,
50236,29.09.1961,,,,,,,,,,,,,,,,,,,0,2,,,,,
50236,30.09.1961,,,,,,,,,,,,,,,,,,,0,2,,,,,
50236,01.10.1961,,,,,,,,,,,,,,,,,,,0,2,,,,,
50236,02.10.1961,,,,,,,,,,,,,,,,,,,0,2,,,,,
50236,03.10.1961,,,,,,,,,,,,,,,,,,,0,2,,,,,
50236,04.10.1961,,,,,,,,,,,,,,,,,,,0,2,,,,,
50236,05.10.1961,,,,,,,,,,,,,,,,,,,0,2,,,,,
50236,06.10.1961,,,,,,,,,,,,,,,,,,,0,2,,,,,
50236,07.10.1961,,,,,,,,,,,,,,,,,,,0,2,,,,,
50236,08.10.1961,,,,,,,,,,,,,,,,,,,0,2,,,,,
50236,09.10.1961,,,,,,,,,,,,,,,,,,,0,2,,,,,
50236,10.10.1961,,,,,,,,,,,,,,,,,,,0,2,,,,,
50236,11.10.1961,,,,,,,,,,,,,,,,,,,0,2,,,,,
50236,12.10.1961,,,,,,,,,,,,,,,,,,,0,2,,,,,
50236,13.10.1961,,,,,,,,,,,,,,,,,,,0,2,,,,,
50236,14.10.1961,,,,,,,,,,,,,,,,,,,0,2,,,,,
50236,15.10.1961,,,,,,,,,,,,,,,,,,,0,2,,,,,
50236,16.10.1961,,,,,,,,,,,,,,,,,,,0,2,,,,,
50236,17.10.1961,,,,,,,,,,,,,,,,,,,0,2,,,,,
50236,18.10.1961,,,,,,,,,,,,,,,,,,,0,2,,,,,
50236,19.10.1961,,,,,,,,,,,,,,,,,,,0,2,,,,,
50236,20.10.1961,,,,,,,,,,,,,,,,,,,0,2,,,,,
50236,21.10.1961,,,,,,,,,,,,,,,,,,,0,2,,,,,
50236,22.10.1961,,,,,,,,,,,,,,,,,,,0,2,,,,,
50236,23.10.1961,,,,,,,,,,,,,,,,,,,0,2,,,,,
50236,24.10.1961,,,,,,,,,,,,,,,,,,,0,2,,,,,
50236,25.10.1961,,,,,,,,,,,,,,,,,,,0,2,,,,,
50236,26.10.1961,,,,,,,,,,,,,,,,,,,0,2,,,,,
50236,27.10.1961,,,,,,,,,,,,,,,,,,,0,2,,,,,
50236,28.10.1961,,,,,,,,,,,,,,,,,,,0,2,,,,,
50236,29.10.1961,,,,,,,,,,,,,,,,,,,0,2,,,,,
50236,30.10.1961,,,,,,,,,,,,,,,,,,,0,2,,,,,
50236,31.10.1961,,,,,,,,,,,,,,,,,,,0,2,,,,,
50236,01.11.1961,,,,,,,,,,,,,,,,,,,0,2,,,,,
50236,02.11.1961,,,,,,,,,,,,,,,,,,,0,2,,,,,
50236,03.11.1961,,,,,,,,,,,,,,,,,,,0,2,,,,,
50236,04.11.1961,,,,,,,,,,,,,,,,,,,0,2,,,,,
50236,05.11.1961,,,,,,,,,,,,,,,,,,,0,2,,,,,
50236,06.11.1961,,,,,,,,,,,,,,,,,,,1,2,,,,,
50236,07.11.1961,,,,,,,,,,,,,,,,,,,1,2,,,,,
50236,08.11.1961,,,,,,,,,,,,,,,,,,,0,2,,,,,
50236,09.11.1961,,,,,,,,,,,,,,,,,,,0,2,,,,,
50236,10.11.1961,,,,,,,,,,,,,,,,,,,0,2,,,,,
50236,11.11.1961,,,,,,,,,,,,,,,,,,,0,2,,,,,
50236,12.11.1961,,,,,,,,,,,,,,,,,,,0,2,,,,,
50236,13.11.1961,,,,,,,,,,,,,,,,,,,0,2,,,,,
50236,14.11.1961,,,,,,,,,,,,,,,,,,,0,2,,,,,
50236,15.11.1961,,,,,,,,,,,,,,,,,,,0,2,,,,,
50236,16.11.1961,,,,,,,,,,,,,,,,,,,0,2,,,,,
50236,17.11.1961,,,,,,,,,,,,,,,,,,,0,2,,,,,
50236,18.11.1961,,,,,,,,,,,,,,,,,,,0,2,,,,,
50236,19.11.1961,,,,,,,,,,,,,,,,,,,0,2,,,,,
50236,20.11.1961,,,,,,,,,,,,,,,,,,,0,2,,,,,
50236,21.11.1961,,,,,,,,,,,,,,,,,,,0,2,,,,,
50236,22.11.1961,,,,,,,,,,,,,,,,,,,0,2,,,,,
50236,23.11.1961,,,,,,,,,,,,,,,,,,,0,2,,,,,
50236,24.11.1961,,,,,,,,,,,,,,,,,,,0,2,,,,,
50236,25.11.1961,,,,,,,,,,,,,,,,,,,0,2,,,,,
50236,26.11.1961,,,,,,,,,,,,,,,,,,,0,2,,,,,
50236,27.11.1961,,,,,,,,,,,,,,,,,,,0,2,,,,,
50236,28.11.1961,,,,,,,,,,,,,,,,,,,0,2,,,,,
50236,29.11.1961,,,,,,,,,,,,,,,,,,,0,2,,,,,
50236,30.11.1961,,,,,,,,,,,,,,,,,,,0,2,,,,,
50236,01.12.1961,,,,,,,,,,,,,,,,,,,0,2,,,,,
50236,02.12.1961,,,,,,,,,,,,,,,,,,,0,2,,,,,
50236,03.12.1961,,,,,,,,,,,,,,,,,,,0,2,,,,,
50236,04.12.1961,,,,,,,,,,,,,,,,,,,0,2,,,,,
50236,05.12.1961,,,,,,,,,,,,,,,,,,,0,2,,,,,
50236,06.12.1961,,,,,,,,,,,,,,,,,,,0,2,,,,,
50236,07.12.1961,,,,,,,,,,,,,,,,,,,0,2,,,,,
50236,08.12.1961,,,,,,,,,,,,,,,,,,,0,2,,,,,
50236,09.12.1961,,,,,,,,,,,,,,,,,,,0,2,,,,,
50236,10.12.1961,,,,,,,,,,,,,,,,,,,0,2,,,,,
50236,11.12.1961,,,,,,,,,,,,,,,,,,,0,2,,,,,
50236,12.12.1961,,,,,,,,,,,,,,,,,,,0,2,,,,,
50236,13.12.1961,,,,,,,,,,,,,,,,,,,2,2,,,,,
50236,14.12.1961,,,,,,,,,,,,,,,,,,,5,2,,,,,
50236,15.12.1961,,,,,,,,,,,,,,,,,,,6,2,,,,,
50236,16.12.1961,,,,,,,,,,,,,,,,,,,7,2,,,,,
50236,17.12.1961,,,,,,,,,,,,,,,,,,,6,2,,,,,
50236,18.12.1961,,,,,,,,,,,,,,,,,,,6,2,,,,,
50236,19.12.1961,,,,,,,,,,,,,,,,,,,6,2,,,,,
50236,20.12.1961,,,,,,,,,,,,,,,,,,,6,2,,,,,
50236,21.12.1961,,,,,,,,,,,,,,,,,,,5,2,,,,,
50236,22.12.1961,,,,,,,,,,,,,,,,,,,6,2,,,,,
50236,23.12.1961,,,,,,,,,,,,,,,,,,,8,2,,,,,
50236,24.12.1961,,,,,,,,,,,,,,,,,,,8,2,,,,,
50236,25.12.1961,,,,,,,,,,,,,,,,,,,8,2,,,,,
50236,26.12.1961,,,,,,,,,,,,,,,,,,,7,2,,,,,
50236,27.12.1961,,,,,,,,,,,,,,,,,,,9,2,,,,,
50236,28.12.1961,,,,,,,,,,,,,,,,,,,7,2,,,,,
50236,29.12.1961,,,,,,,,,,,,,,,,,,,7,2,,,,,
50236,30.12.1961,,,,,,,,,,,,,,,,,,,7,2,,,,,
50236,31.12.1961,,,,,,,,,,,,,,,,,,,6,2,,,,,
50236,01.01.1962,,,,,,,,,,,,,,,,,,,5,2,,,,,
50236,02.01.1962,,,,,,,,,,,,,,,,,,,6,2,,,,,
50236,03.01.1962,,,,,,,,,,,,,,,,,,,6,2,,,,,
50236,04.01.1962,,,,,,,,,,,,,,,,,,,6,2,,,,,
50236,05.01.1962,,,,,,,,,,,,,,,,,,,5,2,,,,,
50236,06.01.1962,,,,,,,,,,,,,,,,,,,6,2,,,,,
50236,07.01.1962,,,,,,,,,,,,,,,,,,,6,2,,,,,
50236,08.01.1962,,,,,,,,,,,,,,,,,,,6,2,,,,,
50236,09.01.1962,,,,,,,,,,,,,,,,,,,5,2,,,,,
50236,10.01.1962,,,,,,,,,,,,,,,,,,,4,2,,,,,
50236,11.01.1962,,,,,,,,,,,,,,,,,,,3,2,,,,,
50236,12.01.1962,,,,,,,,,,,,,,,,,,,1,2,,,,,
50236,13.01.1962,,,,,,,,,,,,,,,,,,,1,2,,,,,
50236,14.01.1962,,,,,,,,,,,,,,,,,,,1,2,,,,,
50236,15.01.1962,,,,,,,,,,,,,,,,,,,2,2,,,,,
50236,16.01.1962,,,,,,,,,,,,,,,,,,,2,2,,,,,
50236,17.01.1962,,,,,,,,,,,,,,,,,,,2,2,,,,,
50236,18.01.1962,,,,,,,,,,,,,,,,,,,1,2,,,,,
50236,19.01.1962,,,,,,,,,,,,,,,,,,,1,2,,,,,
50236,20.01.1962,,,,,,,,,,,,,,,,,,,0,2,,,,,
50236,21.01.1962,,,,,,,,,,,,,,,,,,,0,2,,,,,
50236,22.01.1962,,,,,,,,,,,,,,,,,,,0,2,,,,,
50236,23.01.1962,,,,,,,,,,,,,,,,,,,1,2,,,,,
50236,24.01.1962,,,,,,,,,,,,,,,,,,,1,2,,,,,
50236,25.01.1962,,,,,,,,,,,,,,,,,,,0,2,,,,,
50236,26.01.1962,,,,,,,,,,,,,,,,,,,0,2,,,,,
50236,27.01.1962,,,,,,,,,,,,,,,,,,,0,2,,,,,
50236,28.01.1962,,,,,,,,,,,,,,,,,,,1,2,,,,,
50236,29.01.1962,,,,,,,,,,,,,,,,,,,4,2,,,,,
50236,30.01.1962,,,,,,,,,,,,,,,,,,,6,2,,,,,
50236,31.01.1962,,,,,,,,,,,,,,,,,,,7,2,,,,,
50236,01.02.1962,,,,,,,,,,,,,,,,,,,6,2,,,,,
50236,02.02.1962,,,,,,,,,,,,,,,,,,,7,2,,,,,
50236,03.02.1962,,,,,,,,,,,,,,,,,,,7,2,,,,,
50236,04.02.1962,,,,,,,,,,,,,,,,,,,6,2,,,,,
50236,05.02.1962,,,,,,,,,,,,,,,,,,,8,2,,,,,
50236,06.02.1962,,,,,,,,,,,,,,,,,,,5,2,,,,,
50236,07.02.1962,,,,,,,,,,,,,,,,,,,2,2,,,,,
50236,08.02.1962,,,,,,,,,,,,,,,,,,,1,2,,,,,
50236,09.02.1962,,,,,,,,,,,,,,,,,,,0,2,,,,,
50236,10.02.1962,,,,,,,,,,,,,,,,,,,0,2,,,,,
50236,11.02.1962,,,,,,,,,,,,,,,,,,,0,2,,,,,
50236,12.02.1962,,,,,,,,,,,,,,,,,,,1,2,,,,,
50236,13.02.1962,,,,,,,,,,,,,,,,,,,8,2,,,,,
50236,14.02.1962,,,,,,,,,,,,,,,,,,,15,2,,,,,
50236,15.02.1962,,,,,,,,,,,,,,,,,,,17,2,,,,,
50236,16.02.1962,,,,,,,,,,,,,,,,,,,18,2,,,,,
50236,17.02.1962,,,,,,,,,,,,,,,,,,,16,2,,,,,
50236,18.02.1962,,,,,,,,,,,,,,,,,,,18,2,,,,,
50236,19.02.1962,,,,,,,,,,,,,,,,,,,18,2,,,,,
50236,20.02.1962,,,,,,,,,,,,,,,,,,,15,2,,,,,
50236,21.02.1962,,,,,,,,,,,,,,,,,,,13,2,,,,,
50236,22.02.1962,,,,,,,,,,,,,,,,,,,12,2,,,,,
50236,23.02.1962,,,,,,,,,,,,,,,,,,,14,2,,,,,
50236,24.02.1962,,,,,,,,,,,,,,,,,,,14,2,,,,,
50236,25.02.1962,,,,,,,,,,,,,,,,,,,19,2,,,,,
50236,26.02.1962,,,,,,,,,,,,,,,,,,,20,2,,,,,
50236,27.02.1962,,,,,,,,,,,,,,,,,,,18,2,,,,,
50236,28.02.1962,,,,,,,,,,,,,,,,,,,17,2,,,,,
50236,01.03.1962,,,,,,,,,,,,,,,,,,,16,2,,,,,
50236,02.03.1962,,,,,,,,,,,,,,,,,,,16,2,,,,,
50236,03.03.1962,,,,,,,,,,,,,,,,,,,15,2,,,,,
50236,04.03.1962,,,,,,,,,,,,,,,,,,,16,2,,,,,
50236,05.03.1962,,,,,,,,,,,,,,,,,,,16,2,,,,,
50236,06.03.1962,,,,,,,,,,,,,,,,,,,16,2,,,,,
50236,07.03.1962,,,,,,,,,,,,,,,,,,,16,2,,,,,
50236,08.03.1962,,,,,,,,,,,,,,,,,,,15,2,,,,,
50236,09.03.1962,,,,,,,,,,,,,,,,,,,13,2,,,,,
50236,10.03.1962,,,,,,,,,,,,,,,,,,,13,2,,,,,
50236,11.03.1962,,,,,,,,,,,,,,,,,,,11,2,,,,,
50236,12.03.1962,,,,,,,,,,,,,,,,,,,9,2,,,,,
50236,13.03.1962,,,,,,,,,,,,,,,,,,,8,2,,,,,
50236,14.03.1962,,,,,,,,,,,,,,,,,,,8,2,,,,,
50236,15.03.1962,,,,,,,,,,,,,,,,,,,8,2,,,,,
50236,16.03.1962,,,,,,,,,,,,,,,,,,,7,2,,,,,
50236,17.03.1962,,,,,,,,,,,,,,,,,,,7,2,,,,,
50236,18.03.1962,,,,,,,,,,,,,,,,,,,7,2,,,,,
50236,19.03.1962,,,,,,,,,,,,,,,,,,,5,2,,,,,
50236,20.03.1962,,,,,,,,,,,,,,,,,,,5,2,,,,,
50236,21.03.1962,,,,,,,,,,,,,,,,,,,2,2,,,,,
50236,22.03.1962,,,,,,,,,,,,,,,,,,,2,2,,,,,
50236,23.03.1962,,,,,,,,,,,,,,,,,,,2,2,,,,,
50236,24.03.1962,,,,,,,,,,,,,,,,,,,2,2,,,,,
50236,25.03.1962,,,,,,,,,,,,,,,,,,,2,2,,,,,
50236,26.03.1962,,,,,,,,,,,,,,,,,,,1,2,,,,,
50236,27.03.1962,,,,,,,,,,,,,,,,,,,0,2,,,,,
50236,28.03.1962,,,,,,,,,,,,,,,,,,,1,2,,,,,
50236,29.03.1962,,,,,,,,,,,,,,,,,,,1,2,,,,,
50236,30.03.1962,,,,,,,,,,,,,,,,,,,0,2,,,,,
50236,31.03.1962,,,,,,,,,,,,,,,,,,,0,2,,,,,
50236,01.04.1962,,,,,,,,,,,,,,,,,,,0,2,,,,,
50236,02.04.1962,,,,,,,,,,,,,,,,,,,0,2,,,,,
50236,03.04.1962,,,,,,,,,,,,,,,,,,,0,2,,,,,
50236,04.04.1962,,,,,,,,,,,,,,,,,,,0,2,,,,,
50236,05.04.1962,,,,,,,,,,,,,,,,,,,0,2,,,,,
50236,06.04.1962,,,,,,,,,,,,,,,,,,,0,2,,,,,
50236,07.04.1962,,,,,,,,,,,,,,,,,,,0,2,,,,,
50236,08.04.1962,,,,,,,,,,,,,,,,,,,0,2,,,,,
50236,09.04.1962,,,,,,,,,,,,,,,,,,,0,2,,,,,
50236,10.04.1962,,,,,,,,,,,,,,,,,,,0,2,,,,,
50236,11.04.1962,,,,,,,,,,,,,,,,,,,0,2,,,,,
50236,12.04.1962,,,,,,,,,,,,,,,,,,,0,2,,,,,
50236,13.04.1962,,,,,,,,,,,,,,,,,,,0,2,,,,,
50236,14.04.1962,,,,,,,,,,,,,,,,,,,0,2,,,,,
50236,15.04.1962,,,,,,,,,,,,,,,,,,,0,2,,,,,
50236,16.04.1962,,,,,,,,,,,,,,,,,,,0,2,,,,,
50236,17.04.1962,,,,,,,,,,,,,,,,,,,0,2,,,,,
50236,18.04.1962,,,,,,,,,,,,,,,,,,,0,2,,,,,
50236,19.04.1962,,,,,,,,,,,,,,,,,,,0,2,,,,,
50236,20.04.1962,,,,,,,,,,,,,,,,,,,0,2,,,,,
50236,21.04.1962,,,,,,,,,,,,,,,,,,,0,2,,,,,
50236,22.04.1962,,,,,,,,,,,,,,,,,,,0,2,,,,,
50236,23.04.1962,,,,,,,,,,,,,,,,,,,0,2,,,,,
50236,24.04.1962,,,,,,,,,,,,,,,,,,,0,2,,,,,
50236,25.04.1962,,,,,,,,,,,,,,,,,,,0,2,,,,,
50236,26.04.1962,,,,,,,,,,,,,,,,,,,0,2,,,,,
50236,27.04.1962,,,,,,,,,,,,,,,,,,,0,2,,,,,
50236,28.04.1962,,,,,,,,,,,,,,,,,,,0,2,,,,,
50236,29.04.1962,,,,,,,,,,,,,,,,,,,0,2,,,,,
50236,30.04.1962,,,,,,,,,,,,,,,,,,,1,2,,,,,
50236,01.05.1962,,,,,,,,,,,,,,,,,,,0,2,,,,,
50236,02.05.1962,,,,,,,,,,,,,,,,,,,0,2,,,,,
50236,03.05.1962,,,,,,,,,,,,,,,,,,,0,2,,,,,
50236,04.05.1962,,,,,,,,,,,,,,,,,,,0,2,,,,,
50236,05.05.1962,,,,,,,,,,,,,,,,,,,0,2,,,,,
50236,06.05.1962,,,,,,,,,,,,,,,,,,,0,2,,,,,
50236,07.05.1962,,,,,,,,,,,,,,,,,,,0,2,,,,,
50236,08.05.1962,,,,,,,,,,,,,,,,,,,0,2,,,,,
50236,09.05.1962,,,,,,,,,,,,,,,,,,,0,2,,,,,
50236,10.05.1962,,,,,,,,,,,,,,,,,,,0,2,,,,,
50236,11.05.1962,,,,,,,,,,,,,,,,,,,0,2,,,,,
50236,12.05.1962,,,,,,,,,,,,,,,,,,,0,2,,,,,
50236,13.05.1962,,,,,,,,,,,,,,,,,,,0,2,,,,,
50236,14.05.1962,,,,,,,,,,,,,,,,,,,0,2,,,,,
50236,15.05.1962,,,,,,,,,,,,,,,,,,,0,2,,,,,
50236,16.05.1962,,,,,,,,,,,,,,,,,,,0,2,,,,,
50236,17.05.1962,,,,,,,,,,,,,,,,,,,0,2,,,,,
50236,18.05.1962,,,,,,,,,,,,,,,,,,,0,2,,,,,
50236,19.05.1962,,,,,,,,,,,,,,,,,,,0,2,,,,,
50236,20.05.1962,,,,,,,,,,,,,,,,,,,0,2,,,,,
50236,21.05.1962,,,,,,,,,,,,,,,,,,,0,2,,,,,
50236,22.05.1962,,,,,,,,,,,,,,,,,,,0,2,,,,,
50236,23.05.1962,,,,,,,,,,,,,,,,,,,0,2,,,,,
50236,24.05.1962,,,,,,,,,,,,,,,,,,,0,2,,,,,
50236,25.05.1962,,,,,,,,,,,,,,,,,,,0,2,,,,,
50236,26.05.1962,,,,,,,,,,,,,,,,,,,0,2,,,,,
50236,27.05.1962,,,,,,,,,,,,,,,,,,,0,2,,,,,
50236,28.05.1962,,,,,,,,,,,,,,,,,,,0,2,,,,,
50236,29.05.1962,,,,,,,,,,,,,,,,,,,0,2,,,,,
50236,30.05.1962,,,,,,,,,,,,,,,,,,,0,2,,,,,
50236,31.05.1962,,,,,,,,,,,,,,,,,,,0,2,,,,,
50236,01.06.1962,,,,,,,,,,,,,,,,,,,0,2,,,,,
50236,02.06.1962,,,,,,,,,,,,,,,,,,,0,2,,,,,
50236,03.06.1962,,,,,,,,,,,,,,,,,,,0,2,,,,,
50236,04.06.1962,,,,,,,,,,,,,,,,,,,0,2,,,,,
50236,05.06.1962,,,,,,,,,,,,,,,,,,,0,2,,,,,
50236,06.06.1962,,,,,,,,,,,,,,,,,,,0,2,,,,,
50236,07.06.1962,,,,,,,,,,,,,,,,,,,0,2,,,,,
50236,08.06.1962,,,,,,,,,,,,,,,,,,,0,2,,,,,
50236,09.06.1962,,,,,,,,,,,,,,,,,,,0,2,,,,,
50236,10.06.1962,,,,,,,,,,,,,,,,,,,0,2,,,,,
50236,11.06.1962,,,,,,,,,,,,,,,,,,,0,2,,,,,
50236,12.06.1962,,,,,,,,,,,,,,,,,,,0,2,,,,,
50236,13.06.1962,,,,,,,,,,,,,,,,,,,0,2,,,,,